Location: Unspecified
(48.5670°N, 0.0000°E)
Time: 03:01:35
(UTC+00:00)

Vanguard 2 Rocket - Pass Details

Date: 27 August 2019
Orbit: 553 x 3327 km, 32.9° (Epoch: 23 October)

Event Time Altitude Azimuth Distance (km) Brightness Sun altitude
Rises 01:13:46 0° 213° (SSW) 4,289 - -29.1°
Reaches altitude 10° 01:16:47 10° 201° (SSW) 3,668 - -28.9°
Exits shadow 01:23:54 27° 154° (SSE) 3,268 9.3 -28.5°
Maximum altitude 01:24:48 27° 148° (SSE) 3,338 9.4 -28.4°
Drops below altitude 10° 01:36:40 10° 99° (E) 5,564 11.1 -27.6°
Sets 01:42:39 0° 90° (E) 6,943 11.8 -27.1°
